FW3754 Weather Reports


Display with metric or nautical units.
time (UTC)temp
F
wind
direction
speed
MPH
gust
MPH
rain 1hr
in
rain 24hr
in
rain mn
in
humidity
%
barometer
mb
20260902043044 79 190 0.0 0.0 0.00 0.00 0.00 89 1014.3
20260902041534 79 252 0.0 0.0 0.00 0.00 0.00 89 1014.6
20260902040035 79 118 0.0 0.0 0.00 0.00 0.00 89 1014.5
20260902034528 79 118 1.0 0.0 0.00 0.00 0.00 89 1014.9
20260902033030 79 238 1.0 0.0 0.00 0.00 0.00 88 1015.2
20260902031528 79 152 3.0 0.0 0.00 0.00 0.00 89 1015.0
20260902030027 79 111 6.0 0.0 0.00 0.00 0.00 88 1015.2
20260902024526 80 132 5.0 0.0 0.00 0.00 0.00 88 1015.0
20260902023026 81 102 5.0 0.0 0.00 0.00 0.00 84 1015.1
20260902021526 80 101 1.0 0.0 0.00 0.00 0.00 86 1015.1
20260902020025 80 64 3.0 0.0 0.00 0.00 0.00 86 1015.0
20260902014529 80 38 2.0 0.0 0.00 0.00 0.00 84 1014.7
20260902013025 80 53 2.0 0.0 0.00 0.00 0.00 85 1014.8
20260902011532 80 67 2.0 0.0 0.00 0.00 0.00 85 1014.5
20260902010024 81 351 2.0 0.0 0.00 0.00 0.00 84 1014.3
20260902004523 81 65 3.0 0.0 0.00 0.00 0.00 84 1014.2
20260902003027 82 80 3.0 0.0 0.00 0.00 0.00 82 1014.2
20260902001523 83 343 2.0 0.0 0.00 0.00 0.00 80 1014.1
20260902000025 84 197 0.0 0.0 0.00 0.00 0.00 75 1014.2
20260901234522 84 197 0.0 0.0 0.00 0.00 0.00 74 1014.3
20260901233022 84 277 1.0 0.0 0.00 0.00 0.00 75 1014.4
20260901231525 86 268 1.0 0.0 0.00 0.00 0.00 74 1014.3
20260901230021 88 267 0.0 0.0 0.00 0.00 0.00 74 1014.1
20260901224532 88 277 2.0 0.0 0.00 0.00 0.00 74 1013.8
20260901223020 88 287 2.0 0.0 0.00 0.00 0.00 73 1014.0
20260901221519 89 296 1.0 0.0 0.00 0.00 0.00 73 1014.1
20260901220020 89 225 2.0 0.0 0.00 0.00 0.00 73 1013.8
20260901214518 90 191 2.0 0.0 0.00 0.00 0.00 72 1013.8
20260901213037 90 267 1.0 0.0 0.00 0.00 0.00 71 1013.6
20260901211518 90 270 2.0 0.0 0.00 0.00 0.00 70 1013.6
20260901210017 90 280 2.0 0.0 0.00 0.00 0.00 72 1013.5
20260901204528 90 288 3.0 0.0 0.00 0.00 0.00 75 1012.9
20260901203023 88 288 2.0 0.0 0.00 0.00 0.00 77 1013.0
20260901201514 87 263 1.0 0.0 0.00 0.00 0.00 80 1013.2
20260901200013 85 269 1.0 0.0 0.00 0.00 0.00 82 1013.4
20260901194510 83 266 1.0 0.0 0.00 0.00 0.00 84 1013.6
20260901193013 82 278 2.0 0.0 0.00 0.00 0.00 85 1014.1
20260901191511 83 267 2.0 0.0 0.00 0.00 0.00 83 1014.2
20260901190010 83 250 3.0 0.0 0.00 0.00 0.00 77 1014.5
20260901184525 83 304 4.0 0.0 0.00 0.00 0.00 74 1014.7
20260901183008 82 236 5.0 0.0 0.00 0.00 0.00 74 1014.8
20260901181509 83 188 9.0 0.0 0.00 0.00 0.00 73 1015.1
20260901180007 92 215 1.0 0.0 0.00 0.00 0.00 63 1015.0
20260901174518 93 286 1.0 0.0 0.00 0.00 0.00 61 1014.8
20260901173003 92 300 2.0 0.0 0.00 0.00 0.00 60 1015.0
20260901171605 90 261 1.0 0.0 0.00 0.00 0.00 73 1015.2
20260901170100 88 259 1.0 0.0 0.00 0.00 0.00 73 1015.3
20260901164602 89 211 0.0 0.0 0.00 0.00 0.00 73 1015.5
20260901163053 88 269 0.0 0.0 0.00 0.00 0.00 75 1015.8
20260901161609 87 265 0.0 0.0 0.00 0.00 0.00 76 1015.7
20260901160107 87 193 1.0 0.0 0.00 0.00 0.00 77 1015.7
20260901154548 86 196 1.0 0.0 0.00 0.00 0.00 78 1015.7
20260901153059 86 114 2.0 0.0 0.00 0.00 0.00 77 1015.6
20260901151545 86 129 2.0 0.0 0.00 0.00 0.00 80 1015.8
20260901150044 85 163 2.0 0.0 0.00 0.00 0.00 82 1015.7
20260901144542 85 112 1.0 0.0 0.00 0.00 0.00 82 1015.6
20260901143053 84 138 1.0 0.0 0.00 0.00 0.00 84 1015.7
20260901141543 83 181 2.0 0.0 0.00 0.00 0.00 85 1015.6
20260901140042 84 188 2.0 0.0 0.00 0.00 0.00 85 1015.3
20260901134537 82 184 3.0 0.0 0.00 0.00 0.00 89 1015.4
20260901133032 81 144 2.0 0.0 0.00 0.00 0.00 90 1015.3
20260901131529 80 154 2.0 0.0 0.00 0.00 0.00 91 1015.2
20260901130030 79 141 0.0 0.0 0.00 0.00 0.00 92 1015.2
20260901124533 79 247 1.0 0.0 0.00 0.00 0.00 94 1015.1
20260901123040 78 263 0.0 0.0 0.00 0.00 0.00 94 1015.0
20260901121528 78 182 1.0 0.0 0.00 0.00 0.00 94 1014.9
20260901120036 78 127 2.0 0.0 0.00 0.00 0.00 94 1014.7
20260901114525 78 169 2.0 0.0 0.00 0.00 0.00 94 1014.4
20260901113029 78 118 1.0 0.0 0.00 0.00 0.00 94 1014.4
20260901111529 78 152 1.0 0.0 0.00 0.00 0.00 93 1014.2
20260901110024 78 175 1.0 0.0 0.00 0.00 0.00 93 1014.2
20260901104524 78 165 1.0 0.0 0.00 0.00 0.00 93 1014.1
20260901103022 78 154 1.0 0.0 0.00 0.00 0.00 93 1013.7
20260901101522 78 123 1.0 0.0 0.00 0.00 0.00 93 1013.7
20260901100023 78 130 2.0 0.0 0.00 0.00 0.00 93 1013.8
20260901094521 78 117 3.0 0.0 0.00 0.00 0.00 93 1013.9
20260901093021 78 119 1.0 0.0 0.00 0.00 0.00 92 1013.7
20260901091520 78 138 1.0 0.0 0.00 0.00 0.00 92 1013.7
20260901090020 78 155 0.0 0.0 0.00 0.00 0.00 92 1013.6
20260901084520 78 155 1.0 0.0 0.00 0.00 0.00 92 1013.6
20260901083022 78 152 1.0 0.0 0.00 0.00 0.00 92 1013.6
20260901081518 78 144 1.0 0.0 0.00 0.00 0.00 92 1013.7
20260901080018 78 156 1.0 0.0 0.00 0.00 0.00 92 1013.8
20260901074516 78 141 0.0 0.0 0.00 0.00 0.00 92 1014.1
20260901073018 78 141 0.0 0.0 0.00 0.00 0.00 92 1014.2
20260901071512 78 167 1.0 0.0 0.00 0.00 0.00 90 1014.4
20260901070011 79 122 1.0 0.0 0.00 0.00 0.00 89 1014.3
20260901064510 79 113 1.0 0.0 0.00 0.00 0.00 90 1014.2
20260901063008 78 146 1.0 0.0 0.00 0.00 0.00 89 1014.4
20260901061509 78 131 0.0 0.0 0.00 0.00 0.00 89 1014.5
20260901060005 78 175 0.0 0.0 0.00 0.00 0.00 88 1014.6
20260901054504 79 159 1.0 0.0 0.00 0.00 0.00 88 1014.6
20260901053002 79 121 0.0 0.0 0.00 0.00 0.00 88 1014.8
20260901051502 79 259 0.0 0.0 0.00 0.00 0.00 86 1014.7
20260901050001 79 280 0.0 0.0 0.00 0.00 0.00 87 1014.8
20260901044605 79 350 1.0 0.0 0.00 0.00 0.00 87 1014.9